FW1241 Weather Reports


Display with metric or nautical units.
time (UTC)temp
F
wind
direction
speed
MPH
gust
MPH
rain 1hr
in
rain 24hr
in
rain mn
in
humidity
%
barometer
mb
20260502213604 89 225 0.0 1.0 0.00 0.00 0.00 27 1008.2
20260502212605 88 292 0.0 2.0 0.00 0.00 0.00 23 1008.4
20260502211605 87 306 0.0 3.0 0.00 0.00 0.00 25 1008.7
20260502211104 87 288 1.0 3.0 0.00 0.00 0.00 27 1008.7
20260502210605 87 298 0.0 3.0 0.00 0.00 0.00 27 1008.8
20260502210104 87 279 0.0 3.0 0.00 0.00 0.00 28 1008.9
20260502205105 87 296 0.0 3.0 0.00 0.00 0.00 29 1009.1
20260502203604 87 319 0.0 1.0 0.00 0.00 0.00 30 1009.4
20260502203105 88 303 0.0 2.0 0.00 0.00 0.00 28 1009.4
20260502202104 87 357 0.0 1.0 0.00 0.00 0.00 26 1009.5
20260502201605 87 226 0.0 1.0 0.00 0.00 0.00 31 1009.6
20260502201105 86 303 0.0 1.0 0.00 0.00 0.00 28 1009.6
20260502200104 86 173 0.0 1.0 0.00 0.00 0.00 35 1009.8
20260502195604 86 200 0.0 1.0 0.00 0.00 0.00 41 1009.9
20260502193604 86 211 0.0 0.0 0.00 0.00 0.00 38 1010.1
20260502192605 86 187 0.0 0.0 0.00 0.00 0.00 42 1010.2
20260502191605 84 185 0.0 1.0 0.00 0.00 0.00 44 1010.2
20260502191105 84 95 1.0 2.0 0.00 0.00 0.00 42 1010.3
20260502190604 84 329 0.0 1.0 0.00 0.00 0.00 41 1010.4
20260502190104 84 111 0.0 1.0 0.00 0.00 0.00 42 1010.5
20260502185105 84 307 0.0 2.0 0.00 0.00 0.00 42 1010.5
20260502182604 82 268 0.0 1.0 0.00 0.00 0.00 47 1010.9
20260502181104 81 193 0.0 1.0 0.00 0.00 0.00 48 1011.0
20260502180105 81 190 1.0 5.0 0.00 0.00 0.00 49 1011.0
20260502164104 74 146 0.0 3.0 0.00 0.00 0.00 61 1011.4
20260502163605 73 180 1.0 3.0 0.00 0.00 0.00 61 1011.5
20260502162605 73 120 1.0 6.0 0.00 0.00 0.00 62 1011.6
20260502162104 72 145 0.0 5.0 0.00 0.00 0.00 63 1011.7
20260502161105 71 163 1.0 5.0 0.00 0.00 0.00 63 1011.8
20260502160105 71 96 0.0 5.0 0.00 0.00 0.00 66 1011.8
20260502152104 67 173 0.0 3.0 0.00 0.00 0.00 71 1011.5
20260502151605 66 179 1.0 3.0 0.00 0.00 0.00 70 1011.4
20260502151104 66 187 2.0 5.0 0.00 0.00 0.00 70 1011.5
20260502140105 58 111 0.0 1.0 0.00 0.00 0.00 84 1010.7
20260502130604 58 181 0.0 0.0 0.00 0.00 0.00 83 1009.8
20260502123605 58 181 0.0 0.0 0.00 0.00 0.00 83 1009.5
20260502122604 58 181 0.0 0.0 0.00 0.00 0.00 82 1009.4
20260502120605 58 143 0.0 0.0 0.00 0.00 0.00 82 1009.2
20260502120104 58 142 0.0 0.0 0.00 0.00 0.00 82 1009.3
20260502113604 59 111 0.0 1.0 0.00 0.00 0.00 81 1009.5
20260502112604 59 105 0.0 2.0 0.00 0.00 0.00 81 1009.4
20260502112105 59 207 0.0 0.0 0.00 0.00 0.00 81 1009.5
20260502111605 60 155 0.0 0.0 0.00 0.00 0.00 81 1009.5
20260502105604 60 160 0.0 0.0 0.00 0.00 0.00 80 1009.5
20260502105105 60 160 0.0 0.0 0.00 0.00 0.00 80 1009.4
20260502104604 60 160 0.0 0.0 0.00 0.00 0.00 79 1009.4
20260502103605 61 160 0.0 0.0 0.00 0.00 0.00 80 1009.4
20260502103104 61 160 0.0 0.0 0.00 0.00 0.00 81 1009.3
20260502102605 61 160 0.0 0.0 0.00 0.00 0.00 81 1009.3
20260502101104 61 160 0.0 0.0 0.00 0.00 0.00 80 1009.3
20260502100605 62 160 0.0 0.0 0.00 0.00 0.00 80 1009.3
20260502091104 64 108 0.0 0.0 0.00 0.00 0.00 71 1009.8
20260502090604 64 108 0.0 0.0 0.00 0.00 0.00 72 1009.8
20260502090104 64 107 0.0 0.0 0.00 0.00 0.00 73 1009.9
20260502071106 64 132 0.0 0.0 0.00 0.00 0.00 74 1010.3
20260502070605 65 132 0.0 0.0 0.00 0.00 0.00 73 1010.3
20260502065604 65 132 0.0 0.0 0.00 0.00 0.00 73 1010.2
20260502065104 65 132 0.0 0.0 0.00 0.00 0.00 73 1010.1
20260502064105 65 132 0.0 0.0 0.00 0.00 0.00 73 1010.1
20260502063605 66 132 0.0 0.0 0.00 0.00 0.00 73 1010.0
20260502062605 67 128 0.0 0.0 0.00 0.00 0.00 72 1009.9
20260502062104 67 128 0.0 1.0 0.00 0.00 0.00 70 1009.8
20260502061104 67 117 0.0 0.0 0.00 0.00 0.00 69 1009.8
20260502060605 68 117 0.0 0.0 0.00 0.00 0.00 69 1009.8
20260502055104 69 195 0.0 0.0 0.00 0.00 0.00 67 1009.6
20260502052604 69 201 0.0 0.0 0.00 0.00 0.00 69 1009.6
20260502051105 69 201 0.0 0.0 0.00 0.00 0.00 68 1009.5
20260502050104 70 201 0.0 0.0 0.00 0.00 0.00 69 1009.4
20260502044104 71 201 0.0 0.0 0.00 0.00 0.00 67 1009.3
20260502042605 71 283 0.0 0.0 0.00 0.00 0.00 63 1009.1
20260502041605 72 283 0.0 0.0 0.00 0.00 0.00 62 1008.9
20260502032604 75 283 0.0 0.0 0.00 0.00 0.00 55 1008.2
20260502031607 76 283 0.0 0.0 0.00 0.00 0.00 54 1008.2
20260502031105 76 283 0.0 0.0 0.00 0.00 0.00 52 1008.1
20260502030605 77 283 0.0 0.0 0.00 0.00 0.00 52 1008.1
20260502024104 80 283 0.0 0.0 0.00 0.00 0.00 46 1008.0
20260502023604 80 283 0.0 0.0 0.00 0.00 0.00 46 1008.0
20260502022604 82 283 0.0 0.0 0.00 0.00 0.00 43 1008.0
20260502022105 82 283 0.0 0.0 0.00 0.00 0.00 43 1008.0
20260502020604 83 283 0.0 0.0 0.00 0.00 0.00 40 1008.0
20260502013105 87 276 0.0 3.0 0.00 0.00 0.00 35 1008.1
20260502012105 87 296 0.0 3.0 0.00 0.00 0.00 34 1008.1
20260502011605 87 335 0.0 1.0 0.00 0.00 0.00 35 1008.2
20260502005604 87 325 0.0 2.0 0.00 0.00 0.00 34 1008.2
20260502005104 87 296 1.0 3.0 0.00 0.00 0.00 34 1008.2
20260502003604 87 308 1.0 3.0 0.00 0.00 0.00 33 1008.3
20260502002605 87 305 0.0 5.0 0.00 0.00 0.00 33 1008.3
20260502001604 88 311 1.0 3.0 0.00 0.00 0.00 32 1008.5
20260501235604 87 294 1.0 3.0 0.00 0.00 0.00 31 1008.6
20260501233605 88 319 1.0 3.0 0.00 0.00 0.00 31 1008.8
20260501233105 88 267 1.0 5.0 0.00 0.00 0.00 32 1008.8
20260501232604 88 305 1.0 3.0 0.00 0.00 0.00 30 1008.9
20260501232105 88 302 0.0 2.0 0.00 0.00 0.00 30 1008.9
20260501230605 88 5 0.0 1.0 0.00 0.00 0.00 29 1009.0
20260501230104 88 306 0.0 3.0 0.00 0.00 0.00 28 1009.0
20260501225104 87 287 1.0 3.0 0.00 0.00 0.00 31 1009.2
20260501224605 87 298 1.0 5.0 0.00 0.00 0.00 31 1009.3
20260501223605 87 197 0.0 3.0 0.00 0.00 0.00 33 1009.5
20260501223105 87 332 2.0 3.0 0.00 0.00 0.00 31 1009.6
20260501222604 87 318 1.0 3.0 0.00 0.00 0.00 31 1009.7
20260501222104 87 306 1.0 3.0 0.00 0.00 0.00 33 1009.8
20260501221104 87 314 0.0 2.0 0.00 0.00 0.00 32 1009.9
20260501220104 87 292 0.0 3.0 0.00 0.00 0.00 32 1010.1
20260501214604 87 312 1.0 5.0 0.00 0.00 0.00 34 1010.4